Location: Can Tunis
(41.3477°N, 2.1561°E)
Time: 09:16:02
(UTC+00:00)

Daily predictions for brighter satellites

Satellite Brightness Start Highest point End
(mag) Time Altitude Azimuth Time Altitude Azimuth Time Altitude Azimuth
H-2A R/B 3.8 17:16:59 10° E 17:19:19 13° ENE 17:21:39 10° NNE
H-2A R/B 4.2 17:17:29 10° S 17:21:38 42° W 17:25:55 10° NNW
H-2A R/B 3.3 17:19:09 10° N 17:23:08 43° WNW 17:27:01 10° SW
Cosmos 1328 3.9 17:19:19 10° N 17:23:12 54° E 17:27:04 10° SSE
Cosmos 1356 Rocket 4.0 17:20:36 10° SSW 17:24:48 67° W 17:29:05 10° N
Cosmos 2098 Rocket 3.0 17:22:00 10° NNW 17:25:03 53° W 17:27:51 10° S
CORIOLIS 4.1 17:19:57 10° SSE 17:25:16 81° ENE 17:30:39 10° NNW
CZ-4 R/B 2.8 17:24:26 10° ESE 17:26:56 17° ENE 17:29:25 10° NNE
ADEOS Rocket 3.9 17:21:11 10° N 17:27:25 61° WNW 17:34:19 10° SSW
Cosmos 1825 Rocket 3.9 17:25:16 10° N 17:29:32 43° ENE 17:33:45 10° SSE
ERS-2 2.2 17:26:46 10° NNE 17:30:24 83° WNW 17:34:02 10° SSW
YAOGAN 1 4.0 17:27:52 10° ESE 17:30:45 18° ENE 17:33:39 10° NNE
USA 281 3.5 17:24:51 10° SSE 17:31:24 76° WSW 17:37:59 10° NNW
Lacrosse 5 3.9 17:29:15 10° WNW 17:32:58 20° NNW 17:36:42 10° NNE
AQUARIUS 4.5 17:30:53 10° S 17:35:21 74° WSW 17:39:52 10° NNW
Cosmos 2219 4.4 17:31:40 10° N 17:36:11 23° NE 17:40:40 10° ESE
Cosmos 1400 Rocket 3.9 17:37:17 10° SSE 17:40:41 25° E 17:44:04 10° NE
CZ-4B R/B 1.8 17:38:31 10° N 17:41:45 63° WNW 17:44:52 10° SSW
Cosmos 44 3.5 17:37:59 10° S 17:42:11 45° ESE 17:46:38 10° NE
SAR-Lupe-4 3.5 17:38:41 10° NNE 17:42:16 70° E 17:45:50 10° S
Cosmos 1726 Rocket 3.7 17:39:28 10° SSE 17:43:38 48° E 17:47:50 10° NNE
Okean-O 3.4 17:40:02 10° SE 17:43:54 31° ENE 17:47:48 10° N
Cosmos 1758 Rocket 3.5 17:42:25 10° N 17:46:52 90° SE 17:51:13 10° S
Meteor 2-14 Rocket 4.4 17:43:47 10° N 17:49:58 79° E 17:56:04 10° S
Meteor 2-21 4.5 17:47:35 10° N 17:53:47 89° E 17:59:53 10° S
Aureole 3 3.4 17:53:21 10° SSE 17:56:33 34° E 17:59:23 10° NNE
Cosmos 1331 Rocket 4.0 17:52:46 10° SSW 17:57:56 89° ENE 18:03:07 10° NNE
Cosmos 1606 Rocket 3.5 17:53:39 10° S 17:57:59 89° W 18:02:24 10° N
FALCON 9 DEB 3.2 17:54:58 10° SW 17:58:06 51° SE 17:59:55 22° ENE
OAO 3 Rocket 4.1 17:54:45 10° WSW 17:59:12 38° S 18:02:49 14° ESE
SAR-Lupe-1 4.3 17:56:23 10° N 17:59:58 74° WNW 18:03:33 10° SSW
Cosmos 2228 3.2 17:58:05 10° SSW 18:02:18 74° W 18:06:34 10° N
GENESIS II 4.3 17:58:40 10° SW 18:02:42 80° WNW 18:06:45 10° NNE
SKYMED 2 3.5 17:59:28 10° NNE 18:03:50 88° ESE 18:08:10 10° SSW
FALCON 9 DEB 2.9 18:02:31 10° SW 18:05:41 67° SE 18:07:15 27° ENE
SL-4 R/B 3.8 18:03:19 10° NW 18:05:49 18° N 18:08:01 12° NNE
CZ-2C R/B 3.6 18:01:03 10° SE 18:06:33 46° ENE 18:11:58 10° N
Cosmos 292 Rocket 3.7 18:02:20 10° SSW 18:07:06 83° ESE 18:11:57 10° NNE
Cosmos 1244 Rocket 4.5 18:01:47 10° N 18:07:56 62° E 18:14:06 10° SSE
ARGOS 4.1 18:09:09 19° ESE 18:11:35 27° ENE 18:16:01 10° N
FALCON 9 DEB 2.8 18:10:30 10° SW 18:13:44 76° SE 18:15:00 34° ENE
Meteor 2-10 Rocket 4.2 18:09:09 10° SSE 18:13:55 33° E 18:18:33 10° NNE
Cosmos 1346 Rocket 4.4 18:11:07 10° NNE 18:12:50 18° NE 18:12:50 18° NE
Cosmos 2227 Rocket 2.9 18:09:35 10° N 18:14:40 33° ENE 18:17:08 23° E
SeaSat 1 3.4 18:14:54 24° E 18:16:23 28° NE 18:20:34 10° N
CZ-2D R/B 3.1 18:14:28 10° SSE 18:18:16 88° E 18:22:06 10° NNW
Cosmos 1892 3.3 18:15:29 10° N 18:19:02 33° ENE 18:19:17 33° E
Cosmos 1656 3.8 18:15:27 10° S 18:20:45 51° ESE 18:26:11 10° NNE
USA 215 4.4 18:17:29 18° ENE 18:20:54 29° NNE 18:26:19 10° NW
Meteor 2-16 Rocket 4.5 18:17:48 10° N 18:23:55 83° W 18:30:00 10° S
CSL-04 Rocket 3.9 18:19:03 10° SE 18:24:20 46° ENE 18:29:36 10° N
Cosmos 2058 Rocket 3.0 18:20:07 10° S 18:24:35 86° E 18:29:06 10° N
ATLAS 2AS CENTAUR R/B 4.5 18:20:29 10° NNW 18:25:05 17° NNE 18:27:53 14° NE
Cosmos 968 Rocket 4.1 18:21:01 10° N 18:25:47 35° ENE 18:26:57 31° E
Cosmos 1302 Rocket 3.9 18:21:11 10° SSW 18:26:25 83° ESE 18:31:44 10° NNE
FALCON 9 DEB 3.0 18:25:15 10° WSW 18:28:28 71° NW 18:29:11 48° NNE
Cosmos 1953 Rocket 4.0 18:24:18 10° NNW 18:28:39 63° W 18:33:02 10° S
Cosmos 1300 3.9 18:25:25 10° SSW 18:29:03 44° WNW 18:32:44 10° N
Cosmos 1486 Rocket 4.4 18:27:15 10° N 18:32:19 42° ENE 18:33:47 34° ESE
Cosmos 1697 Rocket 3.2 18:27:38 10° SSE 18:32:35 33° ESE 18:32:52 33° E
Helios 1A Rocket 3.4 18:31:57 10° S 18:36:02 60° WSW 18:40:07 10° NNW
GEOS 3 Rocket 3.6 18:36:45 29° SE 18:39:27 68° NE 18:44:48 10° NNW
S3M 3.9 18:35:41 10° S 18:41:40 62° E 18:47:43 10° NNE
DMSP B5D1-3 4.4 18:39:28 10° NNE 18:44:39 80° ESE 18:49:47 10° S
Timation 2 Rocket 4.2 18:38:16 10° NNW 18:44:54 79° WSW 18:51:43 10° SSE
CRYOSAT 2 4.2 18:41:21 10° N 18:46:12 66° E 18:51:01 10° S
Milstar 3 3.9 18:43:44 10° SW 18:49:23 28° S 18:51:54 23° SE
Cosmos 1417 Rocket 4.5 18:47:46 10° S 18:54:00 85° W 19:00:21 10° N
Cosmos 2297 Rocket 2.1 18:49:35 10° NNW 18:55:18 82° ENE 18:57:46 35° SSE
H-2A R/B 2.0 18:52:30 10° SSE 18:57:53 88° ENE 19:03:22 10° NNW
In-Cosmos 22 Rocket 4.4 18:53:31 10° NNW 18:58:50 68° W 19:04:13 10° S
Cosmos 2058 3.8 18:55:26 10° N 18:57:58 36° N 18:57:58 36° N
MOS 1 Rocket 3.4 18:55:34 10° N 19:00:13 79° WNW 19:05:07 10° SSW
CSL-04 Debris 4.2 18:55:31 10° SSE 19:00:56 82° WSW 19:06:25 10° NNW
CZ-4 R/B 2.8 18:58:02 10° SSW 19:01:41 36° W 19:05:18 10° NNW
Cosmos 1340 3.8 18:59:40 10° NNW 19:03:16 43° W 19:05:57 16° SSW
YAOGAN 1 3.7 19:02:24 10° S 19:06:30 42° W 19:10:38 10° NNW
Cosmos 1992 Rocket 3.8 19:04:03 10° SSW 19:09:12 79° ESE 19:09:12 79° ESE
Lacrosse 5 4.1 19:15:19 10° NNW 19:17:45 13° N 19:18:09 13° N
Cosmos 2219 3.7 19:15:05 10° NNW 19:20:44 58° WSW 19:23:22 31° S
Atlas Centaur 2 3.8 19:23:40 10° SW 19:31:06 34° S 19:31:15 34° S
Cosmos 2082 4.2 19:25:57 10° NNW 19:30:17 52° N 19:30:17 52° N
CZ-4C R/B 4.4 19:33:25 10° NNW 19:37:16 19° NNE 19:37:16 19° NNE
Cosmos 2369 4.5 19:33:45 10° SSW 19:37:33 44° SSW 19:37:33 44° SSW
ARGOS 4.2 19:50:40 38° WSW 19:51:35 42° W 19:56:43 10° NNW
SeaSat 1 3.8 19:54:42 36° W 19:54:42 36° W 19:58:22 10° NW
Cosmos 2227 Rocket 3.4 19:53:35 10° NW 19:58:43 36° WSW 19:59:01 36° WSW
USA 215 3.8 20:04:50 49° NNW 20:04:50 49° NNW 20:09:38 10° NW
Cosmos 2263 Rocket 4.5 20:04:56 10° NNW 20:05:55 15° N 20:05:55 15° N
Cosmos 1697 Rocket 4.4 20:11:21 10° WSW 20:14:43 29° W 20:14:43 29° W
ATLAS 2AS CENTAUR R/B 4.0 20:11:04 10° NNW 20:15:19 32° N 20:15:19 32° N
